This is the latest recevied weather packets stored in our database for station/object KD5VOO. If no packets are shown the sender has not sent any weather packets the latest 10 day(s).
| Time | Temp. | Humidity | Pressure | Rain* | Wind** | Luminosity | Snow |
|---|---|---|---|---|---|---|---|
| 1777640299 | 17.22° C | 79% | 1009.9 hPa | 0 mm | - | 11 W/m² | - |
| 1777639693 | 17.22° C | 79% | 1010.2 hPa | 0 mm | - | 6 W/m² | - |
| 1777639391 | 17.22° C | 79% | 1010.2 hPa | 0 mm | - | 3 W/m² | - |
| 1777638788 | 17.22° C | 79% | 1009.9 hPa | 0 mm | - | 4 W/m² | - |
| 1777638181 | 17.78° C | 79% | 1009.9 hPa | 0 mm | - | 2 W/m² | - |
| 1777637875 | 17.78° C | 79% | 1009.5 hPa | 0 mm | - | 2 W/m² | - |
| 1777637573 | 17.78° C | 79% | 1009.2 hPa | 0 mm | - | 2 W/m² | - |
| 1777637270 | 17.78° C | 79% | 1008.8 hPa | 0 mm | - | 1 W/m² | - |
| 1777636967 | 17.78° C | 79% | 1008.8 hPa | 0 mm | - | 0 W/m² | - |
| 1777636662 | 17.78° C | 79% | 1008.8 hPa | 0 mm | - | 0 W/m² | - |
| 1777636359 | 17.78° C | 79% | 1008.8 hPa | 0 mm | - | 0 W/m² | - |
| 1777635452 | 17.78° C | 79% | 1009.2 hPa | 0 mm | - | 0 W/m² | - |
| 1777635149 | 17.78° C | 79% | 1009.2 hPa | 0 mm | - | 0 W/m² | - |
| 1777634845 | 17.78° C | 79% | 1009.5 hPa | 0 mm | - | 0 W/m² | - |
| 1777634542 | 17.78° C | 79% | 1009.5 hPa | 0 mm | - | 0 W/m² | - |
| 1777634239 | 17.78° C | 79% | 1008.8 hPa | 0 mm | - | 0 W/m² | - |
| 1777633935 | 17.78° C | 79% | 1007.8 hPa | 0 mm | - | 0 W/m² | - |
| 1777633633 | 17.78° C | 79% | 1007.5 hPa | 0 mm | - | 0 W/m² | - |
| 1777633331 | 17.78° C | 79% | 1007.1 hPa | 0 mm | - | 0 W/m² | - |
| 1777633028 | 17.78° C | 79% | 1007.5 hPa | 0 mm | - | 0 W/m² | - |
| 1777632724 | 17.78° C | 79% | 1007.5 hPa | 0 mm | - | 0 W/m² | - |
| 1777632420 | 17.78° C | 79% | 1007.5 hPa | 0 mm | - | 0 W/m² | - |
| 1777632118 | 17.78° C | 79% | 1007.5 hPa | 0 mm | - | 0 W/m² | - |
| 1777631815 | 17.78° C | 79% | 1007.8 hPa | 0 mm | - | 0 W/m² | - |
| 1777631514 | 17.78° C | 79% | 1008.2 hPa | 0 mm | - | 0 W/m² | - |
* Rain latest hour (hover to see other rain measurements)
** Current wind speed in m/s (hover to see current wind gust speed)